COSMOS 1753

Satellite information

Favourite Embed

Satellite Type and Status

PAYLOADIN ORBIT

Key statistics

Satellite COSMOS 1753 at a glance.

Uptime

14221

Days in orbit

Revolutions

≈ 12.5

Per day

Orbit

LEO

Low Earth Orbit

Inclination

74.0

Latest

Satellite identification and parameters

Extended collection of information and parameters for COSMOS 1753.

Object identification

Identified? True

Debris? False

Object name: COSMOS 1753

International designator: 1986-042F

Object number (NORAD): 16763

Object ID (CCSDS): 16763

Country: COMMONWEALTH OF INDEPENDENT STATES (CIS)

Current information (Y/N): Y

RCS size: MEDIUM

Orbital parameters

Period: 115.302 minutes

Inclination: 74.0164 deg

SMA: 7847.245 km

Apoapsis: 1476.505 km

Periapsis: 1461.716 km

RAAN: 174.3719 deg

Eccentricy: 0.0009423

Argument of periapsis: 119.7879 deg

Mean anomaly: 53.5974 deg

Mean motion: 12.48897864 rev/day

Mean motion (dot): 0.00000017 rev/day2

B* drag term: 0.00021743 1/REarth

Two-line elements (TLE)

Creation date: May 12, 2025, 2:31 a.m.

Reference frame: TEME

Reference center: EARTH

Epoch: May 11, 2025, 7:59 p.m. UTC

TLE line 0: 0 COSMOS 1753

TLE line 1: 1 16763U 86042F 25131.83288725 .00000017 00000-0 21743-3 0 9996

TLE line 2: 2 16763 74.0164 174.3719 0009423 119.7879 53.5974 12.48897864774973

Live tracking on map

Real-time ground track for satellite COSMOS 1753.

In-orbit conjunctions

There are no conjunctions computed for COSMOS 1753, at the moment. Check back to stay up to date, as we update our databases every day.

Go to all conjunctions

Associated space launch

Military communications satellites

COSMOS 1753 was lifted into orbit during the mission ‘Kosmos-3M | Strela-1M 305-312’, on board a Kosmos-3M space rocket.

The launch took place on June 6, 1986, 3:57 a.m. from 132/1 (132L).

For more information about the launch, click the button.

Launch to space Kosmos-3M | Strela-1M 305-312
Kosmos-3M | Strela-1M 305-312

Agency: N/A

Status: Launch Successful

Launch date: June 6, 1986, 3:57 a.m. UTC

Rocket: Kosmos-3M

Launch pad: 132/1 (132L)

Location: Plesetsk Cosmodrome, Russian Federation

...

Latest news about this satellite

There are no fresh news available about this satellite. Check back as we update our databases every day.


Newsletter sign-up

Weekly statistics, charts and insights to help you stay on top of the space industry.